Weather History for KDUH - December, 2012

Change the Weather History Date:

Saturday, December 8, 2012

  Actual Average (KTOL) Record (KTOL)
Temperature  
Mean Temperature 39 °F 32 °F  
Max Temperature 43 °F 39 °F 65 °F (1966)
Min Temperature 35 °F 25 °F -7 °F (1977)
Degree Days  
Heating Degree Days 26 33  
Month to date heating degree days 254  
Since 1 July heating degree days 1487  
Cooling Degree Days 0 0  
Month to date cooling degree days 0  
Year to date cooling degree days 793  
Moisture  
Dew Point 37 °F    
Average Humidity 89    
Maximum Humidity 93    
Minimum Humidity 81    
Precipitation  
Precipitation 0.00 in 0.09 in - ()
Month to date precipitation 0.73  
Year to date precipitation 32.29  
Snow  
Snow 0.00 in 0.20 in - ()
Month to date snowfall 1.4  
Since 1 July snowfall 3.5  
Snow Depth -    
Sea Level Pressure  
Sea Level Pressure 29.94 in    
Wind  
Wind Speed 3 mph (NNE)    
Max Wind Speed 10 mph    
Max Gust Speed -    
Visibility 6 miles    
Events Fog , Rain    
T = Trace of Precipitation, MM = Missing Value Source: NWS Daily Summary

Daily Weather History Graph

Daily Weather History Graph

Search for Another Location

Airport or City:

Trip Planner

Search our weather history database for the weather conditions in past years. The results will help you decide how hot, cold, wet, or windy it might be!

Date:

Astronomy

Dec. 08, 2012 Rise Set
Actual Time 7:49 AM EST 5:03 PM EST
Civil Twilight 7:18 AM EST 5:35 PM EST
Nautical Twilight 6:43 AM EST 6:10 PM EST
Astronomical Twilight 6:09 AM EST 6:43 PM EST
Moon 2:09 AM EST (12/8) 1:36 PM EST (12/8)
Length of Visible Light 10h 17m
Length of Day
9h 14m
Waning Crescent, 28% of the Moon is Illuminated
Dec 8
Waning Crescent
Dec 13
New
Dec 20
First Quarter
Dec 28
Full
Jan 4
Last Quarter

Hourly Weather History & Observations

Time (EST) Temp. Windchill Dew Point Humidity Pressure Visibility Wind Dir Wind Speed Gust Speed Precip Events Conditions
12:15 AM 41.9 °F 40.0 °F 39.7 °F 92% 29.87 in 1.8 mi East 3.5 mph - N/A Rain Light Rain
12:35 AM 41.9 °F 40.0 °F 39.7 °F 92% 29.86 in 1.8 mi East 3.5 mph - N/A Rain Rain
12:55 AM 41.9 °F 40.0 °F 39.7 °F 92% 29.85 in 1.8 mi East 3.5 mph - N/A   Drizzle
1:15 AM 41.9 °F 40.0 °F 40.1 °F 93% 29.84 in 1.5 mi East 3.5 mph - N/A Rain Light Rain
1:35 AM 41.9 °F 39.0 °F 39.9 °F 93% 29.83 in 1.5 mi East 4.6 mph - N/A Rain Light Rain
1:55 AM 41.9 °F 39.0 °F 40.1 °F 93% 29.83 in 1.5 mi ENE 4.6 mph - N/A Rain Light Rain
2:15 AM 41.9 °F 39.0 °F 40.1 °F 93% 29.83 in 1.8 mi ENE 4.6 mph - N/A Rain Light Rain
2:34 AM 41.9 °F 40.0 °F 40.1 °F 93% 29.83 in 2.0 mi NE 3.5 mph - N/A Rain Light Rain
2:55 AM 42.1 °F 39.2 °F 40.3 °F 93% 29.82 in 2.0 mi ENE 4.6 mph - N/A Rain Rain
3:15 AM 42.3 °F - 40.3 °F 93% 29.82 in 2.5 mi Calm Calm - N/A Rain Rain
3:34 AM 42.3 °F - 40.3 °F 93% 29.83 in 2.5 mi Calm Calm - N/A Rain Rain
3:55 AM 42.1 °F - 40.1 °F 93% 29.82 in 2.5 mi Calm Calm - N/A Rain Rain
4:15 AM 42.1 °F - 40.1 °F 93% 29.82 in 2.0 mi Calm Calm - N/A Rain Light Rain
4:34 AM 42.1 °F - 40.1 °F 93% 29.83 in 2.0 mi Calm Calm - N/A Rain Light Rain
4:55 AM 42.1 °F - 40.1 °F 93% 29.82 in 2.0 mi Calm Calm - N/A   Overcast
5:15 AM 41.9 °F 40.0 °F 40.1 °F 93% 29.82 in 2.0 mi NNE 3.5 mph - N/A Rain Rain
5:34 AM 41.9 °F 40.0 °F 39.7 °F 92% 29.82 in 2.5 mi North 3.5 mph - N/A   Overcast
5:55 AM 41.9 °F 40.0 °F 39.7 °F 92% 29.82 in 2.5 mi NNE 3.5 mph - N/A   Overcast
6:14 AM 41.5 °F - 39.6 °F 93% 29.82 in 2.0 mi Calm Calm - N/A   Overcast
6:35 AM 41.5 °F - 39.7 °F 93% 29.82 in 2.5 mi Calm Calm - N/A   Overcast
6:55 AM 41.5 °F 39.6 °F 39.7 °F 93% 29.82 in 2.0 mi North 3.5 mph - N/A   Overcast
7:14 AM 41.5 °F - 39.7 °F 93% 29.83 in 2.0 mi Calm Calm - N/A   Overcast
7:35 AM 41.9 °F 40.0 °F 39.7 °F 92% 29.83 in 2.0 mi NE 3.5 mph - N/A   Overcast
7:54 AM 41.9 °F - 40.1 °F 93% 29.83 in 2.0 mi Calm Calm - N/A   Overcast
8:14 AM 41.9 °F - 40.1 °F 93% 29.83 in 2.0 mi Calm Calm - N/A   Overcast
8:35 AM 41.9 °F - 40.1 °F 93% 29.84 in 1.8 mi Calm Calm - N/A   Overcast
8:54 AM 41.9 °F - 40.1 °F 93% 29.84 in 1.2 mi Calm Calm - N/A   Overcast
9:15 AM 42.3 °F - 40.3 °F 93% 29.86 in 1.2 mi Calm Calm - N/A   Overcast
9:34 AM 42.3 °F - 40.3 °F 93% 29.86 in 0.8 mi Calm Calm - N/A   Overcast
9:55 AM 43.0 °F 41.3 °F 41.0 °F 93% 29.88 in 0.5 mi NW 3.5 mph - N/A Fog Fog
10:15 AM 42.8 °F 41.1 °F 40.5 °F 91% 29.89 in 0.8 mi NNW 3.5 mph - N/A Rain Rain
10:34 AM 42.8 °F - 40.8 °F 93% 29.90 in 1.2 mi Calm Calm - N/A   Drizzle
10:55 AM 42.8 °F 41.1 °F 40.6 °F 92% 29.90 in 2.5 mi NW 3.5 mph - N/A Rain Light Rain
11:14 AM 43.0 °F 40.3 °F 41.0 °F 93% 29.90 in 5.0 mi NNW 4.6 mph - N/A   Overcast
11:34 AM 43.0 °F 40.3 °F 40.5 °F 91% 29.90 in 7.0 mi NNW 4.6 mph - N/A Rain Light Rain
11:55 AM 43.0 °F 39.5 °F 40.3 °F 90% 29.89 in 7.0 mi North 5.8 mph - N/A   Overcast
12:14 PM 42.3 °F 37.3 °F 39.6 °F 90% 29.90 in 5.0 mi North 8.1 mph - N/A   Overcast
12:35 PM 41.2 °F 36.0 °F 38.3 °F 89% 29.90 in 3.0 mi NW 8.1 mph - N/A   Overcast
12:55 PM 40.5 °F 35.8 °F 37.9 °F 91% 29.90 in 4.0 mi NW 6.9 mph - N/A   Overcast
1:14 PM 39.7 °F 33.2 °F 37.0 °F 90% 29.90 in 10.0 mi North 10.4 mph - N/A   Overcast
1:35 PM 39.2 °F 34.2 °F 36.5 °F 90% 29.92 in 10.0 mi North 6.9 mph - N/A   Overcast
1:54 PM 39.2 °F 33.0 °F 36.1 °F 89% 29.93 in 10.0 mi North 9.2 mph - N/A   Overcast
2:14 PM 38.7 °F 32.9 °F 35.4 °F 88% 29.94 in 10.0 mi North 8.1 mph - N/A   Overcast
2:35 PM 38.5 °F 35.0 °F 34.9 °F 87% 29.95 in 10.0 mi North 4.6 mph - N/A   Overcast
2:54 PM 38.5 °F 35.0 °F 34.5 °F 86% 29.96 in 10.0 mi NNE 4.6 mph - N/A   Overcast
3:35 PM 38.5 °F 35.0 °F 34.5 °F 86% 29.99 in 10.0 mi NNE 4.6 mph - N/A   Overcast
3:54 PM 38.5 °F 36.1 °F 34.0 °F 84% 30.00 in 10.0 mi North 3.5 mph - N/A   Overcast
4:15 PM 38.5 °F 35.0 °F 33.6 °F 83% 30.01 in 10.0 mi North 4.6 mph - N/A   Overcast
4:34 PM 38.5 °F - 33.8 °F 83% 30.02 in 10.0 mi Calm Calm - N/A   Overcast
4:55 PM 38.5 °F 35.0 °F 33.4 °F 82% 30.03 in 10.0 mi North 4.6 mph - N/A   Overcast
5:15 PM 38.3 °F - 32.9 °F 81% 30.03 in 10.0 mi Calm Calm - N/A   Overcast
5:35 PM 38.3 °F 35.9 °F 32.9 °F 81% 30.04 in 10.0 mi North 3.5 mph - N/A   Overcast
5:55 PM 38.1 °F 34.6 °F 32.7 °F 81% 30.05 in 10.0 mi North 4.6 mph - N/A   Overcast
6:14 PM 37.6 °F 35.1 °F 32.4 °F 81% 30.07 in 10.0 mi North 3.5 mph - N/A   Overcast
6:35 PM 37.2 °F - 32.2 °F 82% 30.07 in 10.0 mi Calm Calm - N/A   Overcast
6:55 PM 36.7 °F - 32.0 °F 83% 30.08 in 10.0 mi Calm Calm - N/A   Overcast
7:14 PM 36.3 °F 33.7 °F 32.0 °F 84% 30.09 in 10.0 mi North 3.5 mph - N/A   Overcast
7:35 PM 36.5 °F 33.9 °F 32.0 °F 84% 30.10 in 10.0 mi North 3.5 mph - N/A   Overcast
7:55 PM 36.5 °F 33.9 °F 32.0 °F 84% 30.10 in 10.0 mi North 3.5 mph - N/A   Overcast
8:14 PM 36.5 °F 33.9 °F 32.0 °F 84% 30.11 in 10.0 mi NNE 3.5 mph - N/A   Overcast
8:55 PM 36.1 °F 32.3 °F 31.6 °F 84% 30.12 in 10.0 mi NNE 4.6 mph - N/A   Overcast
9:15 PM 36.1 °F 31.4 °F 31.3 °F 83% 30.12 in 10.0 mi NE 5.8 mph - N/A   Overcast
9:35 PM 36.1 °F 30.6 °F 31.1 °F 82% 30.12 in 10.0 mi NNE 6.9 mph - N/A   Overcast
9:54 PM 36.1 °F 31.4 °F 30.9 °F 81% 30.13 in 10.0 mi NNE 5.8 mph - N/A   Overcast
10:15 PM 36.0 °F 33.3 °F 31.1 °F 82% 30.15 in 10.0 mi NNE 3.5 mph - N/A   Overcast
10:35 PM 35.8 °F 30.1 °F 31.5 °F 84% 30.13 in 10.0 mi NE 6.9 mph - N/A   Overcast
10:54 PM 35.6 °F 29.9 °F 31.5 °F 85% 30.14 in 10.0 mi NE 6.9 mph - N/A   Overcast
11:15 PM 35.6 °F 31.7 °F 31.1 °F 84% 30.14 in 10.0 mi NE 4.6 mph - N/A   Overcast
11:34 PM 35.6 °F 32.8 °F 31.5 °F 85% 30.15 in 10.0 mi NE 3.5 mph - N/A   Overcast
11:55 PM 35.8 °F 33.0 °F 31.5 °F 84% 30.15 in 10.0 mi NE 3.5 mph - N/A   Overcast